Regional Weather Roundup
Issued by NWS

Home | Current Version | Previous Version | Text Only | Print | Product List | Glossary On
Versions: 1 2 3 4 5 6 7 8 9 10 11 12 13 14 15 16 17 18 19 20 21 22 23 24 25 26 27 28 29 30 31 32 33 34 35 36 37 38 39 40 41 42 43 44 45 46 47 48 49 50
000
ASUS43 KFSD 191610
RWRSD

WEATHER ROUNDUP FOR SOUTH DAKOTA
NATIONAL WEATHER SERVICE SIOUX FALLS SD
1000 AM CST SUN NOV 19 2017

NOTE: "FAIR" INDICATES FEW OR NO CLOUDS BELOW 12,000 FEET WITH NO
SIGNIFICANT WEATHER AND/OR OBSTRUCTIONS TO VISIBILITY.


SDZ001>005-009-010-012>017-191700-
NORTHWEST AND NORTH CENTRAL SOUTH DAKOTA

CITY           SKY/WX    TMP DP  RH WIND       PRES   REMARKS
BUFFALO          N/A     35  23  61 W6        29.87S
FAITH            N/A     35  22  58 SW10      29.95F WCI  27
MOBRIDGE       SUNNY     33  25  72 S3        29.92F
$$

SDZ012>016-024>037-041>051-057-063-072>074-191700-
SOUTHWEST AND SOUTH CENTRAL SOUTH DAKOTA

CITY           SKY/WX    TMP DP  RH WIND       PRES   REMARKS
RAPID CTY ARPT SUNNY     38  24  57 CALM      29.97F
PIERRE         SUNNY     34  24  67 W10       29.98F WCI  26
CUSTER         SUNNY     40  13  33 SW5       29.98F
ELLSWORTH AFB  SUNNY     42  21  42 SW5       29.96F
PHILIP         SUNNY     36  25  64 W12       30.00F
PINE RIDGE     SUNNY     39  24  55 SW8       30.04S
SPEARFISH      FAIR      46  14  27 W8G14     29.95F
WINNER         FAIR      38  25  59 SW9       30.03F
$$

SDZ004>011-016>023-039-040-191700-
NORTHEAST SOUTH DAKOTA

CITY           SKY/WX    TMP DP  RH WIND       PRES   REMARKS
ABERDEEN       SUNNY     29  24  82 S8        29.97F WCI  21
WATERTOWN      SUNNY     30  25  81 SW10      29.97F WCI  21
BROOKINGS      SUNNY     31  27  85 SW5       30.02  WCI  26
SISSETON         N/A     39  24  55 CALM      29.93F
$$

SDZ017-020-022-023-036>040-048>070-191700-
SOUTHEAST SOUTH DAKOTA

CITY           SKY/WX    TMP DP  RH WIND       PRES   REMARKS
SIOUX FALLS    MOSUNNY   34  24  67 SW7       30.07S WCI  28
HURON          SUNNY     34  25  69 S5        30.02F WCI  30
CHAMBERLAIN    SUNNY     37  29  73 S5        30.02F
MITCHELL       SUNNY     38  27  64 SW7       30.05F
YANKTON        SUNNY     37  26  64 SW7       30.10F
$$

ABBREVIATIONS USED IN REMARKS
   TC - TEMPERATURE IN CELSIUS
  WCI - WIND CHILL INDEX
   HX - HEAT INDEX
  VSB - VISIBILITY




USA.gov is the U.S. government's official web portal to all federal, state and local government web resources and services.